#timestamp,LO_Frequency,Hit,StdDev 
1645174815.8,286047004.6,N
1645174835.6,286047008.9,N
1645174855.4,286047009.5,N
1645174875.3,286047015.4,N
1645174895.1,286047015.2,N
1645174915.8,286047013.5,N
1645174965.7,286047016.2,E
1645174975.6,286047008.0,N
1645174995.5,286046997.8,P
1645175015.3,286047000.7,N
1645175035.1,286047001.2,N
1645175055.9,286046997.0,N
1645175075.7,286046992.3,N
1645175095.6,286046993.9,N
1645175115.4,286046994.8,N
1645175135.2,286046993.5,N
1645175155.1,286046989.0,N
1645175156.0,286046989.0,N
1645175175.8,286046993.1,N
1645175195.7,286046985.9,N
1645175215.5,286046987.9,N
1645175235.3,286046991.4,N
1645175255.2,286046996.4,N
1645175275.9,286046996.2,N
1645175295.7,286046996.8,N
1645175315.6,286046991.2,N
1645175335.4,286046994.7,N
1645175355.3,286046991.1,N
1645175375.1,286046987.0,N
1645175376.0,286046987.0,N
1645175395.8,286046986.6,N
1645175415.7,286046976.8,Y
1645175435.5,286046982.3,P
1645175455.4,286046986.9,N
1645175475.2,286046986.7,N
1645175495.0,286046982.6,Y
1645175495.9,286046982.6,P
1645175515.8,286046997.1,N
1645175535.6,286047003.7,N
1645175555.4,286047005.1,N
1645175575.3,286047007.1,N
1645175595.1,286047001.0,N
1645175615.9,286047004.3,N
1645175635.7,286047003.2,N
1645175655.5,286047002.1,N
1645175675.4,286047000.4,N
1645175695.2,286046997.5,N
1645175715.0,286046989.9,N
1645175715.9,286046989.9,N
1645175735.8,286046986.0,N
1645175755.6,286046986.3,N
1645175775.5,286046987.5,N
1645175795.3,286046981.3,N
1645175815.1,286046978.1,N
1645175835.9,286046981.1,N
1645175855.7,286046984.2,N
1645175905.6,286046981.6,E
1645175915.5,286046992.4,N
1645175935.3,286047005.4,P
1645175955.2,286047010.1,N
1645175975.0,286047007.2,N
1645175975.9,286047007.2,N
1645175995.7,286047007.4,N
1645176015.6,286047005.3,N
1645176035.4,286047010.4,N
1645176055.3,286047010.5,N
1645176075.1,286047012.3,N
1645176076.0,286047012.3,N
1645176095.8,286047018.2,Y
1645176115.7,286047014.9,P
1645176135.5,286047016.1,P
1645176155.4,286047009.3,N
1645176175.2,286047011.7,Y
1645176195.0,286047007.4,P
1645176195.9,286047007.4,P
1645176215.8,286047002.4,N
1645176235.6,286046998.9,N
1645176255.4,286047003.7,N
1645176275.3,286047003.3,N
1645176295.1,286047000.3,N
1645176315.9,286046998.9,N
1645176335.7,286046995.5,N
1645176355.5,286046998.7,N
1645176375.4,286047011.9,N
1645176395.2,286047018.0,Y
1645176415.0,286047013.0,P
1645176416.0,286047013.0,N
1645176435.8,286047007.8,N
1645176455.6,286047010.0,N
1645176475.5,286047004.6,N
1645176495.3,286047003.2,N
1645176515.1,286047009.4,N
1645176535.9,286047013.0,Y
1645176555.7,286047001.4,P
1645176575.6,286047004.0,N
1645176595.4,286047003.3,N
1645176615.2,286047001.7,N
1645176635.1,286047005.4,N
1645176636.0,286047005.4,N
1645176655.8,286047000.2,N
1645176675.6,286046992.1,Y
1645176695.5,286046989.7,P
1645176715.3,286046992.3,N
1645176735.2,286046990.6,N
1645176785.9,286046983.6,E
1645176795.9,286046986.8,N
1645176815.7,286046992.9,P
1645176835.5,286046997.9,N
1645176855.4,286046996.4,N
1645176875.2,286046991.4,N
1645176895.0,286046982.8,Y
1645176895.9,286046982.8,P
1645176915.8,286046999.1,N
1645176935.6,286047006.0,N
1645176955.5,286047000.5,N
1645176975.3,286046996.5,N
1645176995.1,286046997.1,N
1645177015.9,286047004.4,N
1645177035.7,286047009.9,N
1645177055.5,286047011.4,N
1645177075.4,286047009.8,N
1645177095.2,286047011.4,N
1645177115.1,286047011.6,N
1645177116.0,286047011.6,N
1645177135.8,286047013.1,N
1645177155.6,286047012.1,N
1645177175.5,286047010.5,N
1645177195.3,286047013.7,N
1645177215.1,286047011.2,N
1645177235.9,286047015.1,N
1645177255.7,286047021.8,N
1645177275.6,286047020.6,N
1645177295.4,286047019.4,N
1645177315.2,286047016.1,N
1645177335.1,286047014.4,N
1645177336.0,286047014.4,N
1645177355.8,286047004.5,N
1645177375.6,286047003.7,N
1645177395.5,286047006.9,N
1645177415.3,286047011.6,N
1645177435.2,286047011.5,N
1645177455.9,286047013.6,N
1645177475.7,286047008.9,N
1645177495.6,286047006.8,N
1645177515.4,286047010.2,N
1645177535.3,286047003.7,N
1645177555.1,286047006.8,N
1645177556.0,286047006.8,N
1645177575.8,286047015.4,Y
1645177595.7,286047009.2,P
1645177615.5,286047008.4,P
1645177635.3,286047003.9,P
1645177655.2,286046998.6,N
1645177675.0,286046999.1,N
1645177675.9,286046999.1,N
1645177695.8,286046997.6,N
1645177715.6,286046998.0,N
1645177735.4,286046992.5,N
1645177755.3,286046987.2,N
1645177775.1,286046991.7,N
1645177795.9,286046995.5,N
1645177815.7,286046997.5,N
1645177835.5,286046991.1,N
1645177855.4,286046990.0,N
1645177875.2,286046993.5,N
1645177895.1,286046990.3,N
1645177896.0,286046990.3,N
1645177915.8,286046994.0,N
1645177935.6,286046995.2,N
1645177955.5,286046995.8,N
1645177975.3,286046994.1,N
1645177995.1,286046991.9,N
1645178015.9,286046993.1,N
1645178035.7,286046982.2,N
1645178055.6,286046981.4,N
1645178075.4,286046976.0,Y
1645178095.2,286046989.3,P
1645178115.1,286046991.3,N
1645178116.0,286046940.1,P
1645178135.8,286046988.1,N
1645178155.7,286046985.2,N
1645178175.5,286046986.7,N
1645178195.3,286046982.1,N
1645178215.2,286046980.9,N
1645178235.0,286046975.6,N
1645178235.9,286046975.6,N
1645178255.8,286046967.5,N
1645178275.6,286046962.0,N
1645178295.4,286046970.8,N
1645178315.3,286046969.4,N
1645178335.1,286046967.7,N
1645178355.8,286046974.2,N
1645178375.7,286046977.4,N
1645178395.5,286046981.3,N
